Heber City, UT

2:15 PM MDT on August 28, 2016 (GMT -0600)
Heber

Weather History for K36U - December, 2012

Change the Weather History Date:

Wednesday, December 12, 2012

  Actual Average (KPVU) Record (KPVU)
Temperature  
Mean Temperature 34 °F -  
Max Temperature 44 °F 36 °F 62 °F (2014)
Min Temperature 24 °F 22 °F 0 °F (2013)
Degree Days  
Heating Degree Days 31    
Moisture  
Dew Point 21 °F    
Average Humidity 57    
Maximum Humidity 93    
Minimum Humidity 39    
Precipitation  
Precipitation 0.00 in - - ()
Sea Level Pressure  
Sea Level Pressure 29.80 in    
Wind  
Wind Speed 5 mph (SSE)    
Max Wind Speed 16 mph    
Max Gust Speed 22 mph    
Visibility 10 miles    
Events      
Averages and records for this station are not official NWS values.
T = Trace of Precipitation, MM = Missing Value Source: NWS Daily Summary

Daily Weather History Graph

Daily Weather History Graph

Search for Another Location

Airport or City:

Trip Planner

Search our weather history database for the weather conditions in past years. The results will help you decide how hot, cold, wet, or windy it might be!

Date:

Astronomy

Dec. 12, 2012 Rise Set
Actual Time 7:40 AM MST 4:59 PM MST
Civil Twilight 7:09 AM MST 5:30 PM MST
Nautical Twilight 6:35 AM MST 6:04 PM MST
Astronomical Twilight 6:01 AM MST 6:37 PM MST
Moon 6:48 AM MST (12/12) 4:40 PM MST (12/12)
Length of Visible Light 10h 20m
Length of Day
9h 19m
Waning Crescent, 0% of the Moon is Illuminated
Dec 12
Waning Crescent
Dec 13
New
Dec 19
First Quarter
Dec 28
Full
Jan 4
Last Quarter

Hourly Weather History & Observations

Time (MST) Temp. Windchill Dew Point Humidity Pressure Visibility Wind Dir Wind Speed Gust Speed Precip Events Conditions
12:15 AM 24.8 °F 20.5 °F 21.2 °F 86% 29.84 in 10.0 mi ESE 3.5 mph - N/A   Clear
12:55 AM 24.8 °F - 21.2 °F 86% 29.82 in 10.0 mi Calm Calm - N/A   Clear
1:15 AM 24.8 °F 19.1 °F 23.0 °F 93% 29.81 in 10.0 mi ESE 4.6 mph - N/A   Scattered Clouds
1:35 AM 26.6 °F - 23.0 °F 86% 29.80 in 10.0 mi Calm Calm - N/A   Clear
1:55 AM 26.6 °F - 23.0 °F 86% 29.80 in 10.0 mi Calm Calm - N/A   Clear
2:15 AM 26.6 °F 22.6 °F 23.0 °F 86% 29.80 in 10.0 mi East 3.5 mph - N/A   Clear
3:15 AM 28.4 °F 23.3 °F 23.0 °F 80% 29.77 in 10.0 mi North 4.6 mph - N/A   Clear
3:35 AM 30.2 °F 26.7 °F 23.0 °F 75% 29.78 in 10.0 mi ENE 3.5 mph - N/A   Scattered Clouds
3:55 AM 32.0 °F 25.6 °F 21.2 °F 64% 29.76 in 10.0 mi SSE 6.9 mph - N/A   Scattered Clouds
4:15 AM 32.0 °F 26.4 °F 21.2 °F 64% 29.76 in 10.0 mi NNE 5.8 mph - N/A   Clear
4:55 AM 32.0 °F - 23.0 °F 69% 29.76 in 10.0 mi Calm Calm - N/A   Scattered Clouds
5:15 AM 32.0 °F 28.7 °F 23.0 °F 69% 29.75 in 10.0 mi East 3.5 mph - N/A   Clear
5:35 AM 32.0 °F - 23.0 °F 69% 29.75 in 10.0 mi Calm Calm - N/A   Mostly Cloudy
5:55 AM 35.6 °F 25.9 °F 19.4 °F 52% 29.75 in 10.0 mi South 16.1 mph 21.9 mph N/A   Scattered Clouds
6:15 AM 35.6 °F 26.6 °F 19.4 °F 52% 29.75 in 10.0 mi South 13.8 mph 19.6 mph N/A   Clear
6:35 AM 35.6 °F 27.5 °F 19.4 °F 52% 29.76 in 10.0 mi SSE 11.5 mph - N/A   Clear
6:55 AM 35.6 °F 27.1 °F 19.4 °F 52% 29.76 in 10.0 mi SSE 12.7 mph 17.3 mph N/A   Clear
7:15 AM 33.8 °F 23.5 °F 17.6 °F 52% 29.76 in 10.0 mi SSE 16.1 mph 20.7 mph N/A   Clear
7:35 AM 33.8 °F 24.3 °F 17.6 °F 52% 29.77 in 10.0 mi SSE 13.8 mph 18.4 mph N/A   Clear
7:55 AM 33.8 °F 23.9 °F 17.6 °F 52% 29.77 in 10.0 mi SSE 15.0 mph - N/A   Clear
8:15 AM 33.8 °F 27.7 °F 17.6 °F 52% 29.79 in 10.0 mi South 6.9 mph - N/A   Clear
8:35 AM 33.8 °F 28.6 °F 19.4 °F 56% 29.79 in 10.0 mi WNW 5.8 mph - N/A   Clear
8:55 AM 32.0 °F - 19.4 °F 60% 29.80 in 10.0 mi Calm Calm - N/A   Clear
9:15 AM 33.8 °F - 21.2 °F 60% 29.80 in 10.0 mi Calm Calm - N/A   Clear
9:55 AM 37.4 °F 32.8 °F 19.4 °F 48% 29.82 in 10.0 mi SSE 5.8 mph - N/A   Clear
10:15 AM 37.4 °F 30.8 °F 19.4 °F 48% 29.82 in 10.0 mi SSE 9.2 mph - N/A   Clear
10:35 AM 41.0 °F 35.8 °F 19.4 °F 42% 29.82 in 10.0 mi South 8.1 mph - N/A   Clear
10:55 AM 41.0 °F 34.3 °F 19.4 °F 42% 29.82 in 10.0 mi SSE 11.5 mph 16.1 mph N/A   Clear
11:15 AM 42.8 °F 39.3 °F 19.4 °F 39% 29.82 in 10.0 mi SSE 5.8 mph 9.2 mph N/A   Clear
11:55 AM 42.8 °F 38.6 °F 21.2 °F 42% 29.81 in 10.0 mi SSE 6.9 mph - N/A   Clear
12:15 PM 44.6 °F 38.8 °F 21.2 °F 39% 29.80 in 10.0 mi SW 11.5 mph - N/A   Scattered Clouds
12:35 PM 42.8 °F 35.8 °F 21.2 °F 42% 29.80 in 10.0 mi SW 13.8 mph 19.6 mph N/A   Scattered Clouds
12:55 PM 42.8 °F 36.2 °F 21.2 °F 42% 29.79 in 10.0 mi SW 12.7 mph 17.3 mph N/A   Scattered Clouds
1:15 PM 42.8 °F 37.0 °F 21.2 °F 42% 29.80 in 10.0 mi SW 10.4 mph 18.4 mph N/A   Mostly Cloudy
1:35 PM 42.8 °F 36.6 °F 23.0 °F 46% 29.79 in 10.0 mi SW 11.5 mph - N/A   Scattered Clouds
1:55 PM 42.8 °F 37.0 °F 23.0 °F 46% 29.79 in 10.0 mi SW 10.4 mph - N/A   Clear
2:15 PM 41.0 °F 37.1 °F 23.0 °F 49% 29.79 in 10.0 mi SW 5.8 mph - N/A   Clear
2:35 PM 42.8 °F 40.1 °F 23.0 °F 46% 29.79 in 10.0 mi SW 4.6 mph - N/A   Scattered Clouds
2:55 PM 41.0 °F 39.0 °F 23.0 °F 49% 29.79 in 10.0 mi SSW 3.5 mph - N/A   Overcast
3:15 PM 41.0 °F - 23.0 °F 49% 29.79 in 10.0 mi Calm Calm - N/A   Mostly Cloudy
3:35 PM 41.0 °F - 24.8 °F 53% 29.79 in 10.0 mi Calm Calm - N/A   Mostly Cloudy
3:55 PM 39.2 °F - 23.0 °F 52% 29.80 in 10.0 mi Calm Calm - N/A   Mostly Cloudy
4:15 PM 37.4 °F 32.8 °F 23.0 °F 56% 29.80 in 10.0 mi East 5.8 mph - N/A   Mostly Cloudy
4:35 PM 37.4 °F - 24.8 °F 60% 29.80 in 10.0 mi Calm Calm - N/A   Scattered Clouds
4:55 PM 37.4 °F 32.8 °F 23.0 °F 56% 29.80 in 10.0 mi ESE 5.8 mph - N/A   Clear
5:15 PM 35.6 °F 31.7 °F 24.8 °F 65% 29.80 in 10.0 mi ESE 4.6 mph - N/A   Clear
5:55 PM 35.6 °F - 24.8 °F 65% 29.81 in 10.0 mi Calm Calm - N/A   Scattered Clouds
6:15 PM 35.6 °F - 23.0 °F 60% 29.81 in 10.0 mi Calm Calm - N/A   Scattered Clouds
6:55 PM 33.8 °F - 24.8 °F 70% 29.81 in 10.0 mi Calm Calm - N/A   Overcast
7:15 PM 33.8 °F 30.8 °F 26.6 °F 75% 29.82 in 10.0 mi SE 3.5 mph - N/A   Overcast
7:55 PM 37.4 °F 32.8 °F 21.2 °F 52% 29.82 in 10.0 mi SSE 5.8 mph - N/A   Overcast
8:15 PM 37.4 °F 33.8 °F 21.2 °F 52% 29.82 in 10.0 mi SSE 4.6 mph - N/A   Overcast
8:35 PM 37.4 °F - 19.4 °F 48% 29.82 in 10.0 mi Calm Calm - N/A   Overcast
8:55 PM 37.4 °F 31.4 °F 21.2 °F 52% 29.83 in 10.0 mi SSE 8.1 mph - N/A   Overcast
9:15 PM 37.4 °F 29.8 °F 19.4 °F 48% 29.84 in 10.0 mi SSE 11.5 mph 16.1 mph N/A   Overcast
9:55 PM 37.4 °F 31.4 °F 19.4 °F 48% 29.84 in 10.0 mi SSE 8.1 mph - N/A   Overcast
10:15 PM 35.6 °F 30.7 °F 19.4 °F 52% 29.85 in 10.0 mi SSE 5.8 mph - N/A   Overcast
10:35 PM 35.6 °F 29.9 °F 19.4 °F 52% 29.85 in 10.0 mi SSE 6.9 mph - N/A   Scattered Clouds
10:55 PM 35.6 °F 29.2 °F 19.4 °F 52% 29.85 in 10.0 mi SE 8.1 mph - N/A   Clear
11:15 PM 35.6 °F 30.7 °F 19.4 °F 52% 29.85 in 10.0 mi South 5.8 mph - N/A   Clear
11:35 PM 35.6 °F 29.9 °F 17.6 °F 48% 29.86 in 10.0 mi SSE 6.9 mph - N/A   Clear
11:55 PM 33.8 °F 28.6 °F 19.4 °F 56% 29.86 in 10.0 mi SE 5.8 mph - N/A   Clear